Theta_e
345 348 348 350 349 350 351 348 347 345 349 345 347 348 348 347 347 349 349 350 350 347 351 350 350 351 350 346 342 341 344 345 343 343 341 341 343 347 348 350 349 350 349
345 348 349 350 351 349 347 348 344 351 345 349 346 345 350 347 348 347 349 351 352 350 351 351 351 351 348 347 348 348 345 349 348 349 344 347 346 346 347 349 348 348 349
344 347 349 350 348 349 347 346 351 346 350 347 347 348 348 348 349 351 353 352 352 352 351 351 351 350 348 344 344 345 340 342 344 347 346 338 345 344 344 348 349 348 349
342 347 348 348 347 348 348 347 348 351 350 347 348 348 347 349 351 352 352 351 352 351 351 351 350 350 349 343 340 340 341 342 343 345 344 341 347 341 346 347 344 349 348
344 349 348 346 347 349 349 347 348 350 351 348 349 350 349 350 352 352 353 351 351 351 350 349 349 349 348 341 340 339 342 345 345 346 341 343 344 346 344 343 348 348 348
345 348 346 347 350 350 348 349 349 346 351 348 350 352 353 352 352 352 351 352 351 350 349 345 345 346 344 339 339 341 343 344 346 344 344 341 345 349 348 349 348 347 347
347 345 341 347 349 349 348 351 351 350 351 349 349 348 351 353 353 352 352 352 349 349 347 344 346 348 342 338 340 343 345 345 344 345 339 341 347 347 348 347 347 346 346
350 342 342 347 350 348 351 352 351 347 349 349 350 351 349 350 350 351 351 351 349 344 344 346 342 343 341 340 339 344 346 349 346 344 338 341 343 348 349 348 348 346 347
348 344 347 351 352 348 348 352 352 345 349 347 349 351 350 348 345 347 347 348 347 347 345 342 341 338 340 339 340 344 346 346 345 345 338 341 341 348 349 347 344 346 346
349 347 349 352 349 348 349 352 348 340 349 348 343 346 349 351 346 342 344 345 343 344 341 338 338 337 336 339 340 343 344 346 347 346 339 339 342 347 348 347 347 346 345
350 349 352 350 347 348 349 351 344 338 346 341 343 344 347 347 351 350 344 343 340 340 340 339 341 341 342 336 339 344 347 343 347 345 338 340 341 344 347 343 345 344 345
349 350 349 348 349 349 345 342 336 334 336 341 345 340 347 345 343 351 344 343 341 340 339 341 345 345 346 342 343 341 344 345 346 344 334 341 342 344 347 341 335 343 344
346 347 348 349 350 348 346 336 335 339 345 349 347 341 345 349 349 347 342 342 343 341 345 344 344 347 342 344 341 345 344 347 345 338 335 340 343 338 347 343 337 333 343
344 345 346 347 349 347 345 336 343 345 347 348 349 346 346 347 349 349 348 345 346 347 347 348 349 349 347 343 339 339 346 346 343 337 338 342 346 344 345 347 342 339 335
344 344 345 346 349 346 345 338 343 346 346 349 348 347 346 346 350 350 350 348 348 348 343 348 348 345 343 338 339 339 345 344 343 337 336 337 340 343 349 345 346 345 344
345 344 345 345 349 346 346 342 344 346 346 349 348 343 350 350 351 350 350 349 348 347 348 347 347 338 338 340 338 337 340 340 343 337 332 336 338 341 342 348 346 346 344
346 345 346 344 346 348 348 350 349 347 344 348 348 347 351 351 352 351 349 350 349 352 350 346 343 347 344 344 341 339 337 340 342 337 336 334 336 337 343 345 345 343 346
347 347 346 344 343 346 345 347 346 346 344 346 347 347 347 351 352 351 351 349 350 349 349 349 347 345 345 342 339 339 336 335 339 342 343 342 340 336 339 340 342 343 342
348 348 348 348 344 346 344 347 348 346 347 347 349 346 345 347 355 352 352 351 350 349 349 347 349 345 342 343 340 338 337 337 336 342 343 343 342 340 336 339 340 338 338
347 348 348 348 346 345 345 347 348 344 347 348 350 346 344 343 348 353 353 352 348 349 348 350 347 340 335 338 338 336 335 337 338 337 343 343 342 340 337 337 337 338 338
348 347 348 350 349 347 348 349 348 346 349 350 347 349 346 345 347 352 353 353 350 351 351 348 342 345 336 339 338 338 334 336 338 338 342 340 342 341 341 342 342 339 339
350 350 348 351 350 349 349 348 352 351 348 351 346 349 347 348 350 352 351 353 351 352 351 348 351 348 339 338 344 341 337 337 338 334 336 339 341 342 343 343 343 343 340
351 350 350 348 351 349 349 348 349 353 352 351 348 347 351 348 351 353 353 352 354 353 352 350 351 346 340 339 340 344 337 337 339 336 335 333 336 339 341 343 343 342 339
352 351 350 350 351 352 350 354 353 351 354 353 349 346 352 350 350 352 354 352 354 352 351 348 349 348 347 338 338 342 342 344 337 338 337 334 336 335 335 338 338 340 338
352 353 351 352 352 356 354 354 353 354 353 352 350 347 347 348 348 352 355 354 352 354 355 353 352 352 349 347 338 339 339 339 342 342 337 338 337 336 336 336 336 335 338
352 355 355 354 356 356 355 356 356 356 354 353 350 347 349 350 349 350 357 357 353 352 353 352 351 352 349 351 344 344 338 339 340 340 341 341 338 338 337 334 337 335 336
Wind_Speed
18 19 18 19 19 19 19 21 19 21 19 22 23 21 20 19 20 19 18 17 16 16 16 14 15 14 14 14 13 12 13 13 14 14 15 15 16 14 14 15 15 16 17
25 22 19 20 19 20 19 20 20 19 20 21 19 20 20 20 19 18 17 16 15 15 14 13 13 12 12 13 12 13 13 12 14 15 15 15 15 14 13 12 16 17 17
29 24 21 20 21 19 20 19 19 18 19 20 18 19 19 19 18 17 15 15 14 13 13 12 12 11 11 11 12 13 14 14 12 13 12 11 15 16 16 16 15 16 17
32 24 22 20 22 19 19 18 17 18 17 18 19 17 19 16 15 15 14 14 13 12 12 11 10 9 9 10 12 13 12 12 12 10 10 14 14 15 16 16 16 16 16
28 22 22 20 21 20 19 17 18 16 16 17 16 16 16 15 14 13 13 12 13 12 11 10 9 8 8 9 11 14 10 10 12 9 20 14 15 15 15 15 15 15 15
27 23 23 20 19 19 17 17 17 16 16 16 15 15 14 13 12 12 12 12 12 12 12 12 11 9 9 11 13 13 11 9 13 19 16 15 19 15 15 14 14 14 14
24 26 23 20 20 18 17 16 16 15 15 15 14 14 13 13 12 11 12 12 12 12 12 12 11 9 8 12 12 12 11 11 14 17 13 17 17 14 14 14 14 14 14
29 28 24 21 20 17 17 15 15 15 14 13 13 11 11 12 12 12 11 11 10 11 11 11 11 10 9 8 9 11 11 15 17 15 16 17 16 16 14 13 14 13 14
29 28 24 22 19 16 16 14 14 14 13 12 11 10 9 9 11 12 12 11 9 10 10 10 9 8 8 8 9 9 12 16 12 12 16 15 15 15 14 13 12 12 13
28 26 26 23 20 18 16 13 13 13 12 12 11 10 8 5 8 11 10 9 9 9 10 9 7 7 6 5 7 9 12 13 13 13 14 15 14 14 13 13 12 11 12
29 27 24 22 19 17 16 14 13 12 12 12 11 8 9 5 4 7 7 7 8 8 8 8 5 5 5 2 4 8 8 10 15 12 12 15 13 14 13 12 13 11 11
31 29 26 22 22 18 15 15 13 12 14 12 11 6 8 8 7 7 6 7 7 6 5 5 7 4 3 5 3 5 7 12 11 8 11 14 14 14 12 11 12 12 11
33 31 29 25 24 20 18 16 14 13 13 14 10 3 7 8 7 5 6 8 4 6 4 3 1 4 5 7 8 3 11 12 10 8 11 13 13 13 12 10 10 11 11
33 34 34 29 27 27 20 16 15 14 15 16 15 6 12 5 9 7 9 9 6 6 7 2 5 3 3 4 10 12 18 19 14 9 11 11 11 11 11 11 10 10 10
31 35 40 34 30 29 25 17 15 16 18 17 17 10 7 6 6 9 10 8 11 8 5 2 5 3 3 5 15 17 21 22 16 9 12 10 9 9 10 10 9 9 8
31 34 40 37 34 28 26 18 17 15 19 25 20 12 10 7 7 7 11 7 5 6 7 4 4 4 7 6 11 11 17 14 13 11 13 10 8 7 9 10 10 9 9
34 30 43 40 36 29 23 16 14 6 13 20 17 18 13 10 5 7 7 10 7 3 3 5 3 3 7 6 4 5 8 14 10 15 11 10 8 7 8 9 10 8 9
32 34 44 39 37 31 27 16 13 10 11 7 17 19 14 13 9 8 9 10 9 4 6 5 2 2 3 7 6 9 8 11 12 15 12 12 10 7 8 9 10 9 9
32 42 40 36 39 32 29 23 17 15 12 11 20 17 12 16 14 10 8 7 7 6 7 5 3 3 4 10 6 12 10 7 11 15 14 11 10 8 8 9 9 10 8
39 46 42 39 37 34 30 24 20 20 15 12 10 18 13 12 15 12 8 9 7 9 7 6 4 4 9 6 11 16 10 4 9 14 16 15 11 9 9 9 9 8 6
39 43 42 40 39 36 31 27 23 25 20 17 15 14 17 16 15 14 10 9 6 7 7 5 7 4 8 9 9 9 7 7 3 6 17 13 15 10 10 8 8 7 7
37 42 43 37 41 38 35 33 29 26 23 20 18 13 17 19 17 16 12 8 9 8 8 9 7 3 5 6 4 3 2 1 8 16 17 13 14 14 11 8 8 8 7
36 41 43 42 39 40 35 33 29 24 23 23 23 19 23 20 18 15 15 13 9 14 10 10 9 8 6 7 4 4 2 3 3 7 8 11 18 15 13 12 10 8 6
38 42 43 43 39 39 38 34 31 27 22 24 29 24 24 22 19 17 17 14 14 14 12 10 10 9 7 8 7 6 4 4 3 1 8 9 10 9 12 12 12 12 10
36 38 41 43 41 39 39 36 34 28 28 23 27 27 26 25 23 20 21 17 17 15 13 11 13 13 9 5 8 12 7 6 4 4 2 7 10 10 14 16 13 14 14
38 37 37 40 40 42 42 38 36 32 31 23 24 30 27 29 28 25 22 22 19 18 17 15 14 13 13 9 10 8 12 7 10 4 2 6 13 12 16 15 17 17 17
Wind_Direction
149 132 121 123 121 115 115 107 104 99 96 95 91 90 89 90 91 96 97 100 102 101 99 98 97 91 85 79 79 84 90 87 89 91 96 98 98 94 109 104 108 102 101
147 133 124 123 121 118 116 108 108 103 102 94 94 94 91 88 93 98 99 101 103 100 100 99 98 93 89 87 85 87 94 93 87 88 89 94 93 89 107 113 104 103 103
147 137 130 125 123 121 117 114 108 108 105 103 98 93 94 97 97 97 98 98 99 102 103 102 97 93 88 86 84 93 96 100 102 100 90 99 95 94 96 101 106 107 106
145 138 133 127 123 126 121 118 116 110 107 104 98 97 95 95 95 94 97 100 100 99 101 104 102 99 94 89 92 91 92 97 88 82 111 100 103 96 100 98 102 107 105
139 143 135 127 127 129 125 122 114 114 108 103 101 102 94 95 96 97 97 99 100 100 101 100 102 106 104 94 96 102 98 96 88 93 121 116 109 104 100 101 105 105 107
145 155 143 132 132 130 129 124 120 118 107 106 103 100 97 95 92 96 99 99 101 100 98 100 100 102 110 109 111 113 108 89 120 110 116 114 104 104 105 106 107 105 105
152 156 147 138 137 136 132 128 122 119 112 110 107 106 103 99 97 100 102 102 103 101 99 93 86 91 103 120 116 109 96 88 130 117 109 111 106 109 107 107 108 112 112
154 151 146 144 140 143 133 133 127 122 122 119 114 106 103 105 110 106 104 100 96 91 85 77 74 71 75 99 107 108 89 96 124 117 112 114 114 105 109 108 109 110 111
142 148 149 145 143 144 137 139 129 123 124 119 109 103 101 103 108 111 108 101 94 87 78 70 68 71 68 80 96 111 96 125 117 122 118 116 115 112 109 112 115 117 115
150 153 147 147 150 150 146 144 138 131 125 118 117 109 98 101 108 113 115 110 101 94 86 74 58 57 54 82 106 130 129 122 139 131 122 124 122 118 116 114 112 117 121
146 149 150 152 153 155 154 149 151 143 134 137 125 134 128 134 138 129 121 119 113 105 100 90 63 34 14 37 130 158 145 140 147 147 141 137 129 126 126 118 117 116 117
149 153 157 157 159 164 160 160 157 154 149 145 143 151 150 172 173 147 166 143 116 116 112 102 75 8 1 2 346 203 190 159 141 142 145 143 136 134 134 127 127 121 120
156 159 165 163 168 165 166 159 155 159 157 169 170 79 135 176 157 156 184 167 128 141 110 118 68 26 17 359 356 311 198 174 160 159 151 151 147 141 143 138 129 131 131
165 167 169 170 175 172 172 165 165 177 187 194 193 161 146 155 161 165 188 174 196 185 184 145 45 49 30 353 36 89 161 165 167 149 153 155 155 145 145 148 143 138 139
175 172 173 174 178 177 181 179 186 199 204 203 189 176 147 157 153 188 186 197 206 205 170 171 136 92 43 91 50 94 136 161 165 157 147 145 153 151 152 154 153 151 145
187 175 174 175 178 183 184 187 195 222 219 191 182 174 146 151 162 149 171 165 178 129 130 128 87 90 157 91 71 69 131 144 162 146 129 136 141 141 157 165 163 165 165
192 178 174 174 176 173 178 182 195 190 162 177 185 173 158 137 163 163 178 196 183 138 159 110 87 89 190 197 147 114 122 142 153 143 130 130 137 148 161 171 175 171 172
190 168 172 175 180 182 187 195 194 184 183 188 168 171 170 172 181 167 171 159 185 183 205 206 223 22 222 218 185 149 141 124 143 151 146 141 130 130 150 162 170 180 180
186 166 168 174 180 185 190 196 196 195 197 227 192 182 177 184 184 180 185 161 154 165 183 193 145 16 90 194 173 142 171 131 154 166 165 162 138 129 135 148 159 172 185
171 168 168 177 183 187 192 192 202 206 212 241 201 192 196 188 190 189 175 179 172 169 163 180 144 110 89 96 125 126 117 112 175 162 181 171 153 146 140 138 154 161 173
170 170 173 180 182 184 185 186 198 209 218 232 226 204 202 193 185 195 200 199 202 167 178 170 127 120 121 111 123 117 122 141 149 161 162 168 171 165 156 145 139 147 151
173 172 178 174 179 182 185 191 196 207 212 218 222 238 212 193 190 201 202 184 184 194 185 182 176 193 168 158 95 101 27 315 93 131 132 149 169 172 166 166 160 148 146
176 178 180 182 184 187 188 192 197 205 220 214 212 220 201 196 193 204 209 208 214 198 200 186 195 179 172 142 154 126 86 212 133 121 123 127 152 156 162 169 179 177 152
182 181 183 184 187 189 189 190 194 204 215 212 207 211 204 199 201 209 215 207 197 210 209 198 184 196 188 164 155 151 112 137 143 28 152 166 162 170 170 180 177 183 178
178 182 185 184 188 186 186 193 201 206 216 214 208 209 213 213 217 211 216 217 204 205 213 213 203 204 200 205 194 170 166 173 156 143 183 192 188 189 184 195 194 188 194
178 180 184 185 189 192 190 197 203 208 212 214 214 209 212 212 214 212 211 215 210 209 213 204 205 208 205 199 206 212 184 182 202 185 131 191 200 204 206 195 202 192 200